Location: Balsareny
(41.8670°N, 1.8830°E)
Time: 21:24:39
(UTC+01:00)

N. Korean satellite - Pass Details

Date: 05 December 2021
Orbit: 447 x 490 km, 97.3° (Epoch: 28 January)

Event Time Altitude Azimuth Distance (km) Brightness Sun altitude
Rises 06:56:18 0° 357° (N) 2,462 9.9 -12.4°
Reaches altitude 10° 06:58:40 10° 340° (NNW) 1,582 8.8 -12.0°
Maximum altitude 07:01:14 21° 291° (WNW) 1,079 7.7 -11.5°
Drops below altitude 10° 07:03:48 10° 241° (WSW) 1,571 8.8 -11.1°
Sets 07:06:09 0° 224° (SW) 2,439 9.9 -10.7°
